Погода в Жлобине

Погода в Жлобине : погода сейчас, прогноз погоды и архив. Всё, что Вы хотите узнать о погоде в Жлобине!

Хотите узнать прогноз погоды в Жлобине? Тогда Вам сюда: Погода в Жлобине

Поиск расширенной информации на нашем сайте:

Другие новости

Новости СМИ2

Главная страница сайта

Новости сайта

03.07.2017

Напоминаем, что на нашем специализированном сайте Метеоцентр.Азия вы можете получить высокодетализированные автоматические прогнозы погоды по пунктам России, СНГ и мира в авиационном формате (включающие направление и скорость ветра, видимость, явления погоды, количество и форму облачности, нижнюю и верхнюю границу облачности).


Погода в Жлобине - сегодня

Время (UTC), дата Ветер
(°,м/с) 
Видим.   Явления Облачность Т
(°С)
Тd
(°С)
f(%) Тe
(°С)
Pmin
(гПа)
dP
(гПа)
Po
(мм)
O2
(г/м3)
Тmin Tmax R s Состояние
почвы
03 20.08.17 170 (Ю) 27000 м    8/6 1000 м средняя 
[Sc|Ac trans]
+19.3 +11.5 61 +23  1018.3  -0.1  751  281           
06 20.08.17 160 (Ю) 25000 м    9/0 средняя, верхняя 
[Ac trans|Ci fib]
+20.7 +11.5 56 +24  1018.5  0.3  752  279  +19.3         
09 20.08.17 160 (Ю) 30000 м    10/0 средняя, верхняя 
[Ac trans|Ci]
+28.8 +13.8 40 +35  1017.8  -0.3  751  271           
12 20.08.17 150 (ЮВ) 4{10}  30000 м    4/3 1000 м средняя 
[Cu hum|Ac trans]
+31.4 +10 27 +33  1016.7  -1  751  270           
15 20.08.17 130 (ЮВ) 4{10}  30000 м    6/0 средняя, верхняя 
[Ac trans|Ci fib]
+30.1 +10.3 29 +32  1015.5  -1.2  750  270           
18 20.08.17 120 (ЮВ) 30000 м    3/0 средняя, верхняя 
[Ac lent|Ci fib]
+25.1 +11.3 42 +28  1015.9  0.1  750  275    +32.2       
21 20.08.17 120 (ЮВ) 30000 м    ясно 
+21.7 +10.9 50 +24  1015.4  -0.6  749  278           
00 21.08.17 130 (ЮВ) 25000 м    3/0 средняя 
[Ac trans]
+20.1 +11 56 +23  1014.5  -1  749  279           
03 21.08.17 тихо ()   22000 м    8/3 1000 м средняя, верхняя 
[Sc|Ac As|Cs]
+18.1 +12.2 68 +22  1014.2  -0.5  748  280           
06 21.08.17 110 (В) 23000 м    8/4 1000 м средняя, верхняя 
[Sc|Ac trans|Ci fib]
+20.3 +13.3 64 +26  1013.2  -0.8  748  278  +17.4         
09 21.08.17 330 (СЗ) 30000 м    5/3 1000 м верхняя 
[Sc|Ci fib]
+25.1 +14.6 52 +33  1012.6  -0.2  747  273           
12 21.08.17 320 (СЗ) 26000 м    8/3 600 м кучево-дожд., средняя, верхняя 
[Cb cap|Ac cast|Ci fib]
+26.1 +13.5 46 +32  1012.2  -0.4  747  272           
15 21.08.17 320 (СЗ) 30000 м  в посл. час гроза{ливн. осадки}  9/5 600 м кучево-дожд., средняя, верхняя 
[Cb cap|Ac trans|Ci fib]
+24 +14.2 54 +31  1011.9  -0.4  747  274      0.0     
18 21.08.17 320 (СЗ) 2{10}  20000 м  гроза без осадков{ливн. осадки}  10/8 600 м кучево-дожд., средняя 
[Cb cap|Ac As]
+18.9 +16.8 88 +32  1012.7  0.5  747  278    +27.3     
21 21.08.17 330 (СЗ) 10 км  слаб. ливневой дождь{гроза}  10/8 600 м кучево-дожд., средняя 
[Cb cap|Ac As]
+16.3 +15.8 97 +27  1013.2  0.3  747  281         
00 22.08.17 300 (СЗ) 17000 м  в посл. час гроза{ливн. осадки}  10/6 100 м средняя 
[St|Ac As]
+15.3 +14.8 97 +24  1012.9  -0.3  747  282      0.3     
06 22.08.17 320 (СЗ) 28000 м  {гроза, ливн. осадки}  10/9 200 м средняя 
[St|Ac und]
+14.8 +13.9 94 +22  1012.6  -1  747  283  +14    10     
09 22.08.17 310 (СЗ) 28000 м    10/10 300 м 
[St]
+15.6 +14.2 91 +23  1011.8  -0.7  746  282           
12 22.08.17 320 (СЗ) 30000 м    10/9 1000 м средняя 
[Sc|Ac und]
+16.8 +14 84 +24  1011.1  -0.7  746  280           
15 22.08.17 320 (СЗ) 15000 м  слаб. ливневой дождь  10/10 1000 м кучево-дожд. 
[Cb cap]
+15.6 +13.1 85 +22  1010.6  -0.5  745  282      0.0     
18 22.08.17 310 (СЗ) 7000 м  слаб. ливневой дождь  10/10 300 м кучево-дожд. 
[Cb cap]
+14 +13.4 96 +20  1009.9  -0.8  745  283    +17     
21 22.08.17 330 (СЗ) 11000 м  слаб. ливневой дождь  10/10 600 м кучево-дожд. 
[Cb cap]
+13 +12.6 97 +18  1007.9  -2.1  743  283         
00 23.08.17 340 (С) 10 км  слаб. ливневой дождь  10/8 200 м 
[Frnb]
+12.8 +12.4 97 +18  1005.9  -1.9  742  283         
06 23.08.17 300 (СЗ) 10 км  слаб. ливневой дождь  10/10 200 м кучево-дожд. 
[Cb cap]
+13 +12.4 96 +18  1004.8  -0.4  741  283  +12.4    13     
12 23.08.17 300 (СЗ) 4{11}  30000 м  {ливн. осадки}  8/8 1000 м 
[Sc]
+17.3 +11 66 +21  1006.4  0.9  742  279           
Время (UTC), дата Ветер
(°,м/с) 
Видим.   Явления Облачность Т
(°С)
Тd
(°С)
f(%) Тe
(°С)
Pmin
(гПа)
dP
(гПа)
Po
(мм)
O2
(г/м3)
Тmin Tmax R s Состояние
почвы

Для получения пояснительной информации подведите курсор к названию столбца.

ПОГОДА в Жлобине - архив

Всё, что Вы хотите узнать о погоде в Жлобине - удобно и подробно!

Выберите нужную дату (начиная с 1 января 2015* года) и нажмите кнопку "Найти".
Будут отображены архивные сводки погоды по пункту Жлобин, начиная с указанной даты.


Отображать данные в формате CSV (для использования в таблицах Excel)


Внимание! Наш архив погоды предназначен исключительно для личного некоммерческого использования в познавательных целях. Если Вам необходимы официальные справки о состоянии погоды (для производственных, юридических, коммерческих и т.п. целей), обращайтесь в органы Росгидромета.

*Примечание: данная дата относится к архиву по метеостанциям СССР (Россия, СНГ, Балтия).
Архив по метеостанциям Зарубежной Европы и Азии (кроме Китая) хранится 10 дней, по другим регионам земного шара (Китай, Африка, Америка, Австралия, Океания) - 1 день.

Жлобин - район местоположения метеостанции


Название, широта, долгота, высота метеостанции:
Жлобин 52.9°ш. 30°д. 142 м над ур. моря [Беларусь]

Дополнительная информация

В oтличие oт бoльшинства пoгoдных сайтoв мы публикуем пoдрoбную метеoинфoрмацию в детальнoм прoфессиoнальнoм фoрмате.

Характеристики температуры и влажнoсти вoздуха измеряются на высoте 2 м в тени вдали oт зданий и деревьев.
Скoрoсть ветра измеряется на высoте 10 м (на урoвне рoста челoвека скoрoсть ветра ниже в 1.5-2 раза). Если метеoстанция нахoдится в гoрoде или в лесу, тo скoрoсть ветра занижена на 2-4 м/с пo сравнению с oткрытым местoм. Скoрoсть ветра над акватoриями крупных рек и oзёр, а также на вершинах хoлмoв на 2-5 м/с выше, чем в oбычных услoвиях.
Атмoсфернoе давление в разных тoчках местнoсти мoжет значительнo oтличаться oт давления на метеoстанции, в зависимoсти oт услoвий рельефа (при пoдъёме на 10 м давление пoнижается примернo на 1 мм рт.ст.).